Location: Berlin
(52.5170°N, 13.4000°E)
Time: 22:40:41
(UTC+02:00)

ISS - Pass Details

Date: 22 July 2018
Orbit: 402 x 408 km, 51.6° (Epoch: 22 July)

Event Time Altitude Azimuth Distance (km) Brightness Sun altitude
Rises 02:06:10 0° 279° (W) 2,330 0.0 -16.2°
Reaches altitude 10° 02:08:17 10° 275° (W) 1,469 -1.1 -16.2°
Maximum altitude 02:11:30 54° 197° (SSW) 503 -3.8 -16.1°
Drops below altitude 10° 02:14:43 10° 119° (ESE) 1,468 -1.1 -15.9°
Sets 02:16:50 0° 115° (ESE) 2,328 -0.1 -15.8°
